This demonstration page uses our WeatherBlox Daily Observations layout. Learn more.

Left ArrowRight Arrow

Hourly Observations for July 1, 2020

Temp ( °F °C ) Dew Point ( °F °C ) Humidity (%) Winds ( mph kmh ) Pressure ( in mb ) Visibility ( mi km ) Precip ( " mm )
12:51 am 00:51 Clear 78 25.6 29 -1.7 16 16 NW 10 17 29.75 1008 10 16.0934 0 0
1:51 am 01:51 Clear 76 24.4 28 -2.2 17 17 WNW 10 17 29.75 1008 10 16.0934 0 0
2:51 am 02:51 Clear 76 24.4 27 -2.8 16 16 NW 9 15 29.76 1008 10 16.0934 0 0
3:51 am 03:51 Clear 72 22.2 27 -2.8 19 19 VRB 3 6 29.78 1009 10 16.0934 0 0
4:51 am 04:51 Clear 66 18.9 27 -2.8 23 23 ENE 3 6 29.8 1009 10 16.0934 0 0
5:51 am 05:51 Sunny 66 18.9 27 -2.8 23 23 ENE 5 7 29.82 1010 10 16.0934 0 0
6:51 am 06:51 Sunny 77 25 29 -1.7 17 17 Calm 29.82 1010 10 16.0934 0 0
7:51 am 07:51 Sunny 80 26.7 29 -1.7 15 15 W 3 6 29.83 1010 10 16.0934 0 0
8:51 am 08:51 Sunny 83 28.3 30 -1.1 15 15 SE 3 6 29.83 1010 10 16.0934 0 0
9:51 am 09:51 Sunny 85 29.4 33 0.6 15 15 SE 7 11 29.83 1010 10 16.0934 0 0
10:51 am 10:51 Sunny 90 32.2 33 0.6 13 13 SSE 7 11 29.82 1010 10 16.0934 0 0
11:51 am 11:51 Sunny 91 32.8 33 0.6 13 13 VRB 3 6 29.8 1009 10 16.0934 0 0
12:51 pm 12:51 Sunny 94 34.4 34 1.1 12 12 undefined N/A 29.78 1008 10 16.0934 0 0
1:51 pm 13:51 Sunny 97 36.1 34 1.1 11 11 undefined N/A 29.74 1007 10 16.0934 0 0
2:51 pm 14:51 Sunny 96 35.6 35 1.7 12 12 SSE 3 6 29.72 1006 10 16.0934 0 0
3:51 pm 15:51 Sunny 97 36.1 36 2.2 12 12 Calm 29.69 1005 10 16.0934 0 0
4:51 pm 16:51 Sunny 98 36.7 37 2.8 12 12 VRB 5 7 29.68 1005 10 16.0934 0 0
5:51 pm 17:51 Sunny 99 37.2 36 2.2 11 11 W 9 15 29.67 1005 10 16.0934 0 0
6:51 pm 18:51 Sunny 92 33.3 52 11.1 26 26 S 20 31 29.67 1005 10 16.0934 0 0
7:51 pm 19:51 Clear 87 30.6 53 11.7 31 31 S 12 19 29.7 1006 10 16.0934 0 0
8:51 pm 20:51 Clear 85 29.4 52 11.1 32 32 SE 8 13 29.72 1007 10 16.0934 0 0
9:51 pm 21:51 Clear 84 28.9 51 10.6 32 32 NE 9 15 29.75 1007 10 16.0934 0 0
10:51 pm 22:51 Clear 84 28.9 46 7.8 27 27 NW 6 9 29.75 1008 10 16.0934 0 0
11:51 pm 23:51 Clear 83 28.3 48 8.9 30 30 NW 9 15 29.75 1008 10 16.0934 0 0

Powered by AerisWeather